Home   Weather   Nadi   Past weeks
Flag for Fiji

Past Weather in Nadi, Fiji — Yesterday and Last 2 Weeks

Now
77 °F

Passing clouds.


Feels Like: 78 °F
Forecast: 88 / 78 °F
Wind: 5 mph from East

Location: Nandi

Current Time: Jan 18, 2019 at 5:37:03 am

Latest Report: Jan 18, 2019 at 5:00 am


Visibility: N/A

Pressure: 29.71 "Hg

Humidity: 94%

Dew Point: 75 °F

Location of NadiLocation

Past Weather in Nadi — Graph

°F

Nadi Temperature Yesterday

Maximum temperature yesterday: 88 °F (at 12:00 pm)
Minimum temperature yesterday: 77 °F (at 12:00 am)
Average temperature yesterday: 81 °F

High & Low Weather Summary for the Past Weeks

 TemperatureHumidityPressure
High91 °F (Jan 10, 1:00 pm)100% (Jan 9, 3:00 am)29.80 "Hg (Jan 9, 3:00 am)
Low75 °F (Jan 8, 5:00 am)55% (Jan 3, 12:00 pm)29.56 "Hg (Jan 4, 5:00 pm)
Average81 °F83%29.69 "Hg
* Reported Jan 3 5:00 am — Jan 18 4:00 am, Nadi. Weather by CustomWeather, © 2019

Note: Actual official high and low records may vary slightly from our data, if they occured in-between our weather recording intervals... More about our weather records

Advertising

Nadi Weather History for the Previous 24 Hours

Scroll right to see more
 ConditionsComfort  
Time TempWeatherWind HumidityBarometerVisibility
4:00 am
Fri, Jan 18
77 °FPassing clouds.5 mph94%29.68 "HgN/A
3:00 am77 °FPassing clouds.2 mph94%29.71 "HgN/A
2:00 am77 °FPassing clouds.5 mph94%29.71 "HgN/A
1:00 am77 °FPassing clouds.6 mph94%29.71 "HgN/A
12:00 am77 °FPassing clouds.5 mph100%29.74 "HgN/A
11:00 pm
Thu, Jan 17
79 °FPassing clouds.5 mph94%29.77 "HgN/A
10:00 pm81 °FPartly cloudy.3 mph89%29.74 "HgN/A
9:00 pm79 °FPartly cloudy.5 mph94%29.74 "HgN/A
8:00 pm81 °FPassing clouds.2 mph89%29.71 "HgN/A
7:00 pm81 °FPartly cloudy.6 mph89%29.68 "HgN/A
6:00 pm81 °FBroken clouds.6 mph94%29.68 "HgN/A
5:00 pm79 °FThunderstorms. Broken clouds.5 mph94%29.68 "Hg5 mi
4:30 pm81 °FThunderstorms. Broken clouds.6 mph100%29.68 "Hg5 mi
4:00 pm82 °FThunderstorms. Broken clouds.9 mph94%29.68 "HgN/A
3:00 pm86 °FBroken clouds.13 mph75%29.68 "HgN/A
2:00 pm88 °FScattered clouds.13 mph75%29.68 "HgN/A
1:00 pm88 °FScattered clouds.12 mph70%29.71 "HgN/A
12:00 pm88 °FScattered clouds.8 mph70%29.71 "HgN/A
11:00 am86 °FScattered clouds.8 mph79%29.74 "HgN/A
10:00 am86 °FScattered clouds.6 mph75%29.74 "HgN/A
9:00 am84 °FBroken clouds.3 mph74%29.74 "HgN/A
8:00 am81 °FBroken clouds.5 mph89%29.77 "HgN/A
7:00 am79 °FBroken clouds.2 mph89%29.74 "HgN/A
6:00 am77 °FBroken clouds.5 mph94%29.74 "HgN/A
5:00 am77 °FPassing clouds.6 mph94%29.71 "HgN/A
Weather by CustomWeather, © 2019

See weather overview